Weather History for KGHW - August, 2013

Change the Weather History Date:

Thursday, August 8, 2013

  Actual Average Record
Temperature  
Mean Temperature 66 °F -  
Max Temperature 75 °F 80 °F 98 °F (1983)
Min Temperature 57 °F 59 °F 48 °F (1989)
Cooling Degree Days 1    
Growing Degree Days 16 (Base 50)    
Moisture  
Dew Point 56 °F    
Average Humidity 76    
Maximum Humidity 94    
Minimum Humidity 53    
Precipitation  
Precipitation 0.00 in - - ()
Sea Level Pressure  
Sea Level Pressure 30.04 in    
Wind  
Wind Speed 4 mph (WSW)    
Max Wind Speed 9 mph    
Max Gust Speed -    
Visibility 10 miles    
Events      
Averages and records for this station are not official NWS values.
T = Trace of Precipitation, MM = Missing Value Source: NWS Daily Summary

Daily Weather History Graph

Daily Weather History Graph

Search for Another Location

Airport or City:

Trip Planner

Search our weather history database for the weather conditions in past years. The results will help you decide how hot, cold, wet, or windy it might be!

Date:

Astronomy

Aug. 08, 2013 Rise Set
Actual Time 6:13 AM CDT 8:39 PM CDT
Civil Twilight 5:40 AM CDT 9:12 PM CDT
Nautical Twilight 4:58 AM CDT 9:54 PM CDT
Astronomical Twilight 4:11 AM CDT 10:40 PM CDT
Moon 8:10 AM CDT (8/8) 9:08 PM CDT (8/8)
Length of Visible Light 15h 32m
Length of Day
14h 26m
Waxing Crescent, 3% of the Moon is Illuminated
Aug 8
Waxing Crescent
Aug 14
First Quarter
Aug 20
Full
Aug 28
Last Quarter
Sep 5
New

Hourly Weather History & Observations

Time (CDT) Temp. Dew Point Humidity Pressure Visibility Wind Dir Wind Speed Gust Speed Precip Events Conditions
12:14 AM 57.2 °F 55.4 °F 94% 30.04 in 10.0 mi South 4.6 mph - N/A   Clear
12:33 AM 57.2 °F 55.4 °F 94% 30.04 in 10.0 mi South 3.5 mph - N/A   Clear
12:53 AM 57.2 °F 55.4 °F 94% 30.04 in 10.0 mi South 3.5 mph - N/A   Clear
1:14 AM 57.2 °F 53.6 °F 88% 30.05 in 10.0 mi South 4.6 mph - N/A   Clear
1:33 AM 57.2 °F 53.6 °F 88% 30.05 in 10.0 mi South 3.5 mph - N/A   Clear
1:54 AM 57.2 °F 53.6 °F 88% 30.04 in 10.0 mi Calm Calm - N/A   Clear
2:13 AM 57.2 °F 53.6 °F 88% 30.04 in 10.0 mi Calm Calm - N/A   Clear
2:33 AM 57.2 °F 53.6 °F 88% 30.04 in 10.0 mi Calm Calm - N/A   Clear
2:53 AM 57.2 °F 55.4 °F 94% 30.04 in 10.0 mi Calm Calm - N/A   Mostly Cloudy
3:13 AM 57.2 °F 55.4 °F 94% 30.03 in 10.0 mi Calm Calm - N/A   Overcast
3:34 AM 57.2 °F 55.4 °F 94% 30.03 in 10.0 mi Calm Calm - N/A   Scattered Clouds
3:53 AM 57.2 °F 55.4 °F 94% 30.03 in 10.0 mi Calm Calm - N/A   Scattered Clouds
4:13 AM 57.2 °F 55.4 °F 94% 30.02 in 10.0 mi Calm Calm - N/A   Mostly Cloudy
4:33 AM 57.2 °F 55.4 °F 94% 30.02 in 10.0 mi Calm Calm - N/A   Mostly Cloudy
4:53 AM 57.2 °F 55.4 °F 94% 30.01 in 10.0 mi Calm Calm - N/A   Mostly Cloudy
5:13 AM 57.2 °F 55.4 °F 94% 30.02 in 10.0 mi Calm Calm - N/A   Overcast
5:33 AM 57.2 °F 55.4 °F 94% 30.02 in 10.0 mi Calm Calm - N/A   Mostly Cloudy
5:53 AM 57.2 °F 55.4 °F 94% 30.02 in 10.0 mi Calm Calm - N/A   Overcast
6:14 AM 57.2 °F 55.4 °F 94% 30.02 in 10.0 mi Calm Calm - N/A   Overcast
6:33 AM 57.2 °F 55.4 °F 94% 30.03 in 10.0 mi Calm Calm - N/A   Overcast
6:53 AM 59.0 °F 57.2 °F 94% 30.03 in 10.0 mi Calm Calm - N/A   Mostly Cloudy
7:13 AM 59.0 °F 57.2 °F 94% 30.03 in 10.0 mi Calm Calm - N/A   Scattered Clouds
7:33 AM 60.8 °F 55.4 °F 82% 30.04 in 10.0 mi SSW 3.5 mph - N/A   Scattered Clouds
7:54 AM 60.8 °F 57.2 °F 88% 30.05 in 10.0 mi Calm Calm - N/A   Mostly Cloudy
8:33 AM 60.8 °F 55.4 °F 82% 30.06 in 10.0 mi SSW 4.6 mph - N/A   Scattered Clouds
8:53 AM 62.6 °F 57.2 °F 82% 30.06 in 10.0 mi SSW 5.8 mph - N/A   Scattered Clouds
9:13 AM 62.6 °F 57.2 °F 82% 30.07 in 10.0 mi SSW 6.9 mph - N/A   Scattered Clouds
9:33 AM 62.6 °F 57.2 °F 82% 30.07 in 10.0 mi SW 8.1 mph - N/A   Scattered Clouds
9:53 AM 64.4 °F 55.4 °F 73% 30.08 in 10.0 mi SW 8.1 mph - N/A   Scattered Clouds
10:13 AM 64.4 °F 55.4 °F 73% 30.08 in 10.0 mi SSW 8.1 mph - N/A   Clear
10:34 AM 64.4 °F 55.4 °F 73% 30.07 in 10.0 mi SSW 6.9 mph - N/A   Scattered Clouds
10:53 AM 66.2 °F 55.4 °F 68% 30.07 in 10.0 mi South 9.2 mph - N/A   Clear
11:13 AM 66.2 °F 57.2 °F 73% 30.07 in 10.0 mi WSW 5.8 mph - N/A   Clear
11:33 AM 66.2 °F 57.2 °F 73% 30.06 in 10.0 mi South 4.6 mph - N/A   Clear
11:53 AM 69.8 °F 57.2 °F 64% 30.06 in 10.0 mi SSW 6.9 mph - N/A   Clear
12:14 PM 69.8 °F 57.2 °F 64% 30.05 in 10.0 mi SW 8.1 mph - N/A   Mostly Cloudy
12:33 PM 69.8 °F 57.2 °F 64% 30.05 in 10.0 mi SW 5.8 mph - N/A   Scattered Clouds
12:53 PM 69.8 °F 57.2 °F 64% 30.05 in 10.0 mi SSW 5.8 mph - N/A   Mostly Cloudy
1:13 PM 69.8 °F 59.0 °F 68% 30.05 in 10.0 mi SW 3.5 mph - N/A   Mostly Cloudy
1:33 PM 71.6 °F 57.2 °F 60% 30.05 in 10.0 mi SW 5.8 mph - N/A   Mostly Cloudy
1:53 PM 69.8 °F 59.0 °F 68% 30.05 in 10.0 mi WNW 3.5 mph - N/A   Scattered Clouds
2:13 PM 73.4 °F 57.2 °F 57% 30.05 in 10.0 mi SSW 3.5 mph - N/A   Clear
2:33 PM 71.6 °F 57.2 °F 60% 30.04 in 10.0 mi SW 4.6 mph - N/A   Clear
2:54 PM 71.6 °F 57.2 °F 60% 30.04 in 10.0 mi West 5.8 mph - N/A   Scattered Clouds
3:13 PM 71.6 °F 57.2 °F 60% 30.04 in 10.0 mi West 3.5 mph - N/A   Clear
3:33 PM 73.4 °F 57.2 °F 57% 30.03 in 10.0 mi WSW 8.1 mph - N/A   Clear
3:53 PM 73.4 °F 57.2 °F 57% 30.03 in 10.0 mi WSW 5.8 mph - N/A   Clear
4:13 PM 75.2 °F 57.2 °F 53% 30.02 in 10.0 mi WSW 6.9 mph - N/A   Clear
4:34 PM 75.2 °F 57.2 °F 53% 30.02 in 10.0 mi West 5.8 mph - N/A   Scattered Clouds
4:53 PM 75.2 °F 57.2 °F 53% 30.01 in 10.0 mi NW 5.8 mph - N/A   Scattered Clouds
5:13 PM 75.2 °F 59.0 °F 57% 30.01 in 10.0 mi NW 6.9 mph - N/A   Mostly Cloudy
5:33 PM 73.4 °F 57.2 °F 57% 30.02 in 10.0 mi NW 8.1 mph - N/A   Mostly Cloudy
5:53 PM 71.6 °F 57.2 °F 60% 30.02 in 10.0 mi NW 8.1 mph - N/A   Mostly Cloudy
6:13 PM 71.6 °F 57.2 °F 60% 30.02 in 10.0 mi NW 5.8 mph - N/A   Scattered Clouds
6:33 PM 71.6 °F 57.2 °F 60% 30.02 in 10.0 mi NW 8.1 mph - N/A   Scattered Clouds
6:53 PM 71.6 °F 57.2 °F 60% 30.02 in 10.0 mi NW 6.9 mph - N/A   Scattered Clouds
7:13 PM 69.8 °F 57.2 °F 64% 30.02 in 10.0 mi NW 5.8 mph - N/A   Clear
7:33 PM 71.6 °F 59.0 °F 64% 30.02 in 10.0 mi NW 5.8 mph - N/A   Scattered Clouds
7:53 PM 69.8 °F 57.2 °F 64% 30.02 in 10.0 mi NW 5.8 mph - N/A   Scattered Clouds
8:13 PM 66.2 °F 57.2 °F 73% 30.02 in 10.0 mi WNW 4.6 mph - N/A   Clear
8:33 PM 66.2 °F 57.2 °F 73% 30.02 in 10.0 mi WNW 3.5 mph - N/A   Clear
8:53 PM 64.4 °F 57.2 °F 77% 30.02 in 10.0 mi West 3.5 mph - N/A   Clear
9:13 PM 64.4 °F 57.2 °F 77% 30.03 in 10.0 mi West 3.5 mph - N/A   Clear
9:33 PM 64.4 °F 57.2 °F 77% 30.03 in 10.0 mi WNW 4.6 mph - N/A   Clear
9:53 PM 62.6 °F 57.2 °F 82% 30.03 in 10.0 mi WNW 4.6 mph - N/A   Clear
10:11 PM 62.6 °F 55.4 °F 77% 30.03 in 10.0 mi WNW 5.8 mph - N/A   Clear
10:33 PM 60.8 °F 55.4 °F 82% 30.03 in 10.0 mi WNW 6.9 mph - N/A   Clear
10:53 PM 60.8 °F 55.4 °F 82% 30.04 in 10.0 mi NW 5.8 mph - N/A   Clear
11:10 PM 60.8 °F 55.4 °F 82% 30.04 in 10.0 mi NW 5.8 mph - N/A   Clear
11:28 PM 59.0 °F 53.6 °F 82% 30.04 in 10.0 mi NW 4.6 mph - N/A   Clear
11:51 PM 59.0 °F 53.6 °F 82% 30.04 in 10.0 mi WNW 5.8 mph - N/A   Clear